Location: Aschenhof
(49.8278°N, 12.0200°E)
Time: 01:09:21
(UTC+00:00)

Daily predictions for brighter satellites

Satellite Brightness Start Highest point End
(mag) Time Altitude Azimuth Time Altitude Azimuth Time Altitude Azimuth
ATLAS 3B R/B 4.3 01:00:29 27° ENE 01:00:29 27° ENE 01:04:12 10° E
CENTAUR R/B 3.9 01:07:28 44° NNE 01:07:30 44° NNE 01:15:31 10° E
Cosmos 2322 Rocket 4.4 01:22:09 19° NNE 01:22:09 19° NNE 01:23:44 10° NNE
Cosmos 2360 Rocket 4.2 01:29:59 24° NE 01:29:59 24° NE 01:32:09 10° NNE
ATLAS 2AS CENTAUR R/B 4.4 01:29:01 29° ESE 01:29:58 29° ESE 01:36:35 10° NE
ADEOS II 4.3 01:26:20 10° NNE 01:28:07 21° NE 01:28:07 21° NE
CZ-2D R/B 4.5 01:47:21 10° N 01:48:14 15° N 01:48:14 15° N
USA 267 3.9 01:58:02 10° ENE 02:03:56 45° SE 02:03:56 45° SE
Cosmos 2278 Rocket 3.8 02:10:08 27° ESE 02:10:08 27° ESE 02:12:44 10° SE
Cosmos 2098 Rocket 4.5 02:09:19 69° N 02:09:19 69° N 02:15:28 10° N
Cosmos 2333 Rocket 2.8 02:21:07 55° ENE 02:21:07 55° ENE 02:25:45 10° NNE
NOSS 3-2 (C) 3.9 02:20:06 82° NW 02:20:31 89° SW 02:28:52 10° SE
ATLAS 5 CENTAUR R/B 4.2 02:25:27 28° N 02:26:58 32° NNE 02:37:56 10° E
SL-16 R/B 3.9 02:35:37 21° NNW 02:35:37 21° NNW 02:38:28 10° NNE
BREEZE-M R/B 4.0 02:35:05 64° ESE 02:35:05 64° ESE 02:42:34 10° ENE
Cosmos 2219 Rocket 2.4 02:37:20 66° NE 02:37:20 66° NE 02:42:09 10° NNE
USA 234 3.1 02:33:26 10° ESE 02:40:00 90° NNE 02:40:51 71° WNW
NOSS 3-4 (A) 4.4 02:38:18 34° SSE 02:40:01 41° ESE 02:45:56 10° NE
Cosmos 2181 Rocket 3.9 02:33:42 10° N 02:40:06 90° SSW 02:40:21 84° S
NOSS 3-4 (C) 4.4 02:38:20 33° SSE 02:40:07 41° ESE 02:46:02 10° NE
Cosmos 2322 4.3 02:41:42 47° N 02:41:42 47° N 02:46:04 10° NNE
ARIANE 5 R/B 4.1 02:41:22 10° N 02:43:31 24° N 02:43:31 24° N
Resurs 1-4 Rocket 4.3 02:42:53 10° N 02:43:44 13° NNW 02:43:44 13° NNW
COSMOS 2455 3.2 02:49:04 52° NNW 02:49:04 52° NNW 02:54:24 10° NNE
ATLAS 3B R/B 2.5 02:47:49 53° NW 02:49:36 89° NE 02:56:28 10° SE
Cosmos 2237 Rocket 3.0 02:47:34 32° SSE 02:49:40 47° ESE 02:55:07 10° NE
Aureole 1 Rocket 3.7 02:52:37 60° N 02:52:37 60° N 02:56:19 10° NNE
ADEOS 4.1 02:46:53 10° NNE 02:52:02 55° E 02:54:07 34° SSE
CENTAUR R/B 3.0 02:54:44 32° NW 02:58:56 78° SW 03:07:36 10° SSE
Gblst 52 Del rocket 4.0 02:59:15 80° NW 02:59:32 84° NNE 03:05:17 10° ESE
H-2A R/B 3.9 02:55:53 10° NNE 02:59:48 37° E 03:02:19 19° SSE
Cosmos 2369 Rocket 4.4 02:56:28 10° N 03:00:41 21° NE 03:04:51 10° E
Cosmos 2322 Rocket 3.9 03:03:58 19° NNW 03:03:58 19° NNW 03:07:09 10° N
Cosmos 1980 3.9 03:05:17 39° S 03:07:20 67° ESE 03:12:57 10° NNE
Meteor 1-4 Rocket 4.5 03:07:38 19° SE 03:09:19 28° E 03:12:20 10° NNE
ADEOS II 3.5 03:06:24 10° N 03:09:02 24° NNW 03:09:02 24° NNW
Cosmos 2360 Rocket 3.5 03:11:45 26° NNW 03:11:45 26° NNW 03:15:50 10° NNE
COSMOS 2428 2.7 03:11:04 58° WNW 03:11:08 58° NW 03:16:46 10° NNE
Cosmos 1953 2.9 03:07:16 10° N 03:11:15 55° ENE 03:15:11 10° SSE
Cosmos 389 Rocket 3.3 03:16:50 48° E 03:16:50 48° E 03:19:59 10° NNE
NOSS 2-2 (C) 4.0 03:18:09 45° N 03:18:09 45° N 03:21:47 10° NE
ATLAS 2AS CENTAUR R/B 3.0 03:16:30 36° SW 03:20:16 87° NW 03:28:20 10° NE
Cosmos 44 Rocket 3.6 03:18:53 31° NNW 03:20:59 60° NE 03:25:37 10° SE
SL-24 R/B 4.4 03:18:17 10° NNE 03:22:31 89° ESE 03:22:55 73° SSW
Cosmos 1707 3.2 03:21:26 36° SSE 03:22:49 61° E 03:26:42 10° NNE
Cosmos 1943 Rocket 3.9 03:22:18 10° NNW 03:27:21 31° NE 03:32:22 10° ESE
ERBS 2.9 03:31:01 50° NNE 03:31:01 50° NNE 03:33:45 10° NE
MSX 3.8 03:25:27 10° NNE 03:31:14 81° ESE 03:36:58 10° SSW
CZ-2C R/B 3.1 03:27:31 10° NNE 03:32:40 58° E 03:37:44 10° S
OPS 6432 4.5 03:33:06 84° WNW 03:33:12 87° SW 03:37:34 10° SE
Cosmos 2228 3.2 03:29:52 10° N 03:34:09 70° ENE 03:38:22 10° SSE
Cosmos 2154 Rocket 4.3 03:28:19 10° S 03:34:25 66° E 03:40:36 10° NNE
Cosmos 1709 Rocket 4.5 03:34:58 37° WNW 03:35:22 37° WNW 03:41:14 10° N
NOSS 0 Rocket 3.8 03:33:19 33° SW 03:36:13 74° WNW 03:42:28 10° NNE
COSMO-SKYMED 1 4.2 03:32:23 10° SE 03:36:20 35° ENE 03:40:18 10° N
IDEFIX/ARIANE 42P 2.5 03:33:43 10° N 03:38:55 61° WNW 03:41:20 31° SW
Cosmos 1025 Rocket 3.8 03:40:24 35° NW 03:40:24 35° NW 03:43:30 10° N
PSLV R/B 3.5 03:37:17 10° N 03:41:26 53° WNW 03:41:40 52° W
Cosmos 1726 Rocket 3.6 03:37:19 10° N 03:41:39 78° E 03:45:58 10° SSE
BREEZE-M DEB (TANK) 2.5 03:43:32 53° ESE 03:43:32 53° ESE 03:45:29 10° E
Cosmos 2184 Rocket 3.9 03:37:25 10° SSW 03:43:38 72° WNW 03:49:58 10° N
SL-16 R/B 3.1 03:38:56 10° S 03:44:21 49° ESE 03:49:48 10° NE
Meteor 1-16 Rocket 4.1 03:40:51 10° N 03:46:12 84° E 03:51:35 10° SSE
USA 267 3.2 03:41:03 10° ENE 03:47:35 76° NNW 03:51:17 28° WSW
RESURS DK-1 3.2 03:44:36 11° S 03:48:28 50° ESE 03:52:29 10° NE
Nadezhda 3 Rocket 4.0 03:42:55 10° N 03:49:19 84° W 03:55:39 10° S
Cosmos 2278 Rocket 3.1 03:52:09 27° SW 03:52:09 27° SW 03:55:47 10° SSW
NOSS 2-2 (E) 4.5 03:52:07 28° NW 03:52:43 29° NNW 03:56:54 10° NNE
Cosmos 676 Rocket 4.1 03:49:03 10° SSW 03:54:20 81° ESE 03:59:36 10° NNE
Cosmos 2297 3.6 03:48:39 10° NNW 03:54:25 77° WSW 04:00:08 10° SSE
Cosmos 407 Rocket 3.6 03:59:53 25° SW 04:02:42 51° WNW 04:07:43 10° NNE
Cosmos 2341 Rocket 4.4 03:56:44 10° S 04:02:52 65° E 04:09:02 10° NNE
Cosmos 1190 Rocket 4.1 04:00:14 20° SW 04:03:52 57° WNW 04:09:05 10° NNE
Cosmos 2333 Rocket 3.2 04:03:08 25° WNW 04:04:50 29° NW 04:09:46 10° NNE
Okean O Rocket 3.9 04:01:35 10° NE 04:05:22 27° E 04:09:06 10° SSE
Cosmos 2058 Rocket 3.0 04:01:40 10° N 04:06:07 89° WSW 04:10:33 10° S
CZ-4B R/B 3.8 04:03:10 10° NNE 04:07:11 86° WNW 04:11:21 10° SSW
Cosmos 2074 Rocket 4.3 04:07:41 10° SW 04:13:36 44° WNW 04:19:32 10° N
Meteor 2-10 4.0 04:10:06 10° NNW 04:15:17 71° W 04:20:37 10° S
Cosmos 1295 Rocket 4.4 04:11:01 10° S 04:17:12 84° W 04:23:21 10° N
Meteor PRIRODA 3.6 04:14:39 10° NNE 04:18:25 87° ESE 04:22:10 10° SSW
Cosmos 2219 Rocket 3.4 04:19:05 19° WNW 04:21:13 23° NW 04:25:40 10° NNE
USA 234 3.9 04:17:41 10° SSE 04:23:31 34° SW 04:28:13 15° WNW
SKYMED 2 3.5 04:19:55 10° SSE 04:24:16 83° WSW 04:28:38 10° NNW
KORONAS-FOTON 4.2 04:21:11 10° S 04:24:54 64° E 04:28:41 10° NNE
SL-8 Rocket 4.4 04:19:00 10° S 04:25:08 68° E 04:31:15 10° NNE
Cosmos 2344 4.5 04:18:02 10° NW 04:27:38 76° SW 04:41:03 10° SSE
Cosmos 1437 Rocket 2.5 04:24:59 10° SSW 04:28:45 77° WNW 04:32:34 10° N
NOSS 3-4 (A) 3.7 04:25:47 15° WSW 04:30:47 54° NW 04:37:13 10° NE
Cosmos 1892 Rocket 3.6 04:26:29 10° SSW 04:30:49 56° WNW 04:35:11 10° N
NOSS 3-4 (C) 3.7 04:25:49 15° WSW 04:30:52 54° NW 04:37:19 10° NE
ASTEX 1 4.4 04:26:36 10° SSE 04:31:19 51° ENE 04:36:05 10° N
In-Cosmos 22 4.1 04:26:38 10° SSW 04:31:58 66° WNW 04:37:29 10° N
ALOS 3.2 04:28:16 10° NNE 04:32:51 52° E 04:37:24 10° S
Cosmos 1850 Rocket 4.3 04:27:45 10° SSW 04:32:53 70° ESE 04:38:04 10° NNE
Meteor 2-5 Rocket 3.9 04:27:53 10° S 04:33:43 85° E 04:39:41 10° NNE
Cosmos 2237 Rocket 2.8 04:29:27 14° WSW 04:33:53 37° NW 04:39:11 10° NNE
H-2A R/B 3.5 04:31:40 10° N 04:35:10 27° WNW 04:38:46 10° WSW
COSMOS 2455 4.4 04:32:13 13° WNW 04:35:46 20° NNW 04:40:10 10° NNE
PSLV R/B 3.6 04:32:54 10° N 04:36:37 70° WNW 04:40:17 10° SSW
BREEZE-M DEB (TANK) 1.6 04:35:29 16° W 04:38:16 87° S 04:40:28 10° E
ATLAS 3B R/B 3.7 04:35:09 12° WNW 04:39:31 23° WSW 04:44:39 10° SSW
Cosmos 1140 Rocket 4.0 04:35:44 10° SW 04:40:33 38° WNW 04:45:23 10° NNE
Cosmos 1954 Rocket 4.2 04:35:40 10° SW 04:40:45 49° WNW 04:45:48 10° NNE
CZ-4B DEB 4.3 04:35:19 10° NNE 04:40:50 81° ESE 04:46:18 10° SSW
Cosmos 1908 3.3 04:38:56 10° NNW 04:42:41 52° W 04:46:24 10° S
Meteor 1-4 Rocket 3.7 04:41:56 12° WSW 04:44:23 22° WNW 04:47:09 10° NNW
Cosmos 2369 Rocket 2.3 04:39:57 10° NNW 04:45:35 83° ENE 04:51:11 10° SSE
Cosmos 1726 2.9 04:43:38 10° NNW 04:46:52 30° W 04:50:06 10° SSW
Cosmos 1953 3.9 04:44:52 10° NW 04:47:12 15° W 04:49:31 10° WSW
GP-B 3.5 04:43:50 10° SSW 04:48:00 40° W 04:52:14 10° NNW
CENTAUR R/B 4.2 04:42:47 10° WNW 04:48:52 23° WSW 04:55:13 10° SSW
Cosmos 468 Rocket 4.0 04:43:54 10° NNW 04:48:58 57° WSW 04:53:59 10° S
Cosmos 389 Rocket 4.3 04:50:47 13° W 04:51:41 14° WNW 04:53:31 10° NNW
CZ-4B R/B 3.6 04:49:57 10° N 04:53:28 30° WNW 04:56:50 10° SW
PAYLOAD B 4.3 04:48:28 10° NNE 04:54:05 89° W 04:59:37 10° SSW
USA 116 3.5 04:50:57 10° S 04:54:30 54° WSW 04:57:46 10° NNW
CZ-4B R/B 3.4 04:50:48 10° NNE 04:56:08 74° ESE 05:01:25 10° S
COSMOS 2428 4.4 04:53:07 10° WNW 04:56:40 17° NNW 05:00:15 10° N
Meteor 1-31 Rocket 3.8 04:53:36 10° N 04:56:46 25° WNW 04:59:54 10° WSW
Cosmos 2360 Rocket 4.4 04:57:09 10° NNW 04:57:14 10° NNW 04:57:18 10° NNW
Cosmos 1707 4.5 04:56:57 10° W 04:59:08 14° WNW 05:01:19 10° NNW
Cosmos 1812 Rocket 3.6 04:55:19 10° NNW 04:59:49 83° W 05:04:17 10° S
Cosmos 1656 Rocket 4.5 04:55:20 10° NNW 05:00:42 52° NE 05:05:58 10° SE
Cosmos 1570 Rocket 4.1 04:55:46 10° NNW 05:01:04 64° WSW 05:06:20 10° S
Cosmos 44 Rocket 4.4 04:58:23 10° WNW 05:02:08 24° WSW 05:05:51 10° SSW
Cosmos 1626 Rocket 3.5 05:01:23 10° SSW 05:05:40 67° WNW 05:10:00 10° N
SeaSat 1 4.4 05:02:39 10° NE 05:07:11 35° ESE 05:11:41 10° S
ERBS 3.7 05:04:20 10° WNW 05:07:13 25° N 05:10:08 10° NE
Cosmos 841 Rocket 3.5 05:02:05 10° NNW 05:07:24 84° WSW 05:12:39 10° SSE
CZ-2C R/B 3.6 05:06:21 10° N 05:10:32 25° WNW 05:14:43 10° WSW
Cosmos 1943 Rocket 2.3 05:05:52 10° NW 05:11:28 59° WSW 05:17:00 10° S
ATLAS 2AS CENTAUR R/B 3.7 05:04:51 10° W 05:12:19 39° NNW 05:19:37 10° NE
BREEZE-M DEB (TANK) 4.4 04:53:35 10° W 05:15:46 89° S 05:20:32 10° E
